Location: Angwan Shehu
(11.2514°N, 7.4613°E)
Time: 13:57:36
(UTC+00:00)

Envisat - Visible Passes

Search period start: 25 February 2021 00:00
Search period end: 07 March 2021 00:00
Orbit: 764 x 766 km, 98.1° (Epoch: 24 February)

Date Brightness Start Highest point End Pass type
(mag) Time Alt. Az. Time Alt. Az. Time Alt. Az.
25 Feb 5.9 03:55:34 10° ENE 03:58:37 16° E 04:01:40 10° SE visible
26 Feb 3.0 04:55:41 10° N 05:00:45 87° WNW 05:05:50 10° SSW visible
27 Feb 4.8 04:19:29 10° NE 04:24:00 33° E 04:28:31 10° SSE visible
28 Feb 6.2 03:45:35 10° E 03:47:12 11° E 03:48:47 10° ESE visible
28 Feb 3.4 05:21:19 10° N 05:26:03 42° WNW 05:30:49 10° SSW visible
01 Mar 3.3 04:44:19 10° NNE 04:49:21 69° E 04:54:24 10° S visible
02 Mar 5.3 04:08:31 10° NE 04:12:35 24° E 04:16:38 10° SSE visible
03 Mar 3.1 05:09:43 10° N 05:14:41 57° WNW 05:19:39 10° SSW visible
04 Mar 3.9 04:33:03 10° NNE 04:37:56 50° E 04:42:51 10° S visible
05 Mar 5.8 03:57:47 10° ENE 04:01:09 18° E 04:04:31 10° SE visible
06 Mar 2.9 04:58:13 10° N 05:03:17 79° WNW 05:08:21 10° SSW visible
